Home   Weather   Amiens   Past weeks

Flag for France Past Weather in Amiens, Picardy, France — Yesterday and Last 2 Weeks

Now
70 °F

Passing clouds.


Feels Like: 70 °F
Forecast: 56 / 70 °F
Wind: 12 mph from Southwest

Location: Beauvais Airport

Current Time: Sep 28, 2016 at 1:59:56 PM

Latest Report: Sep 28, 2016 at 1:30 PM


Visibility: N/A

Pressure: 30.36 "Hg

Humidity: 64%

Dew Point: 57 °F

Location of AmiensLocation

Past Weather in Amiens — Graph

°F

Amiens Temperature Yesterday

Maximum temperature yesterday: 75 °F (at 4:00 PM)
Minimum temperature yesterday: 45 °F (at 6:30 AM)
Average temperature yesterday: 59 °F

High & Low Weather Summary for the Past Weeks

 TemperatureHumidityPressure
High90 °F (Sep 13, 4:00 PM)100% (Sep 15, 6:00 AM)30.36 "Hg (Sep 15, 6:00 AM)
Low41 °F (Sep 26, 6:00 AM)34% (Sep 24, 3:30 PM)29.74 "Hg (Sep 14, 1:30 AM)
Average61 °F78%30.08 "Hg
* Reported Sep 13 12:00 PM — Sep 28 12:30 PM, Amiens, Weather by CustomWeather, © 2016

Note: Actual official high and low records may vary slightly from our data, if they occured in-between our weather recording intervals... More about our weather records

Advertising

Amiens Weather History for the Previous 24 Hours

Scroll right to see more
 ConditionsComfort  
Time TempWeatherWind HumidityBarometerVisibility
12:30 PM
Wed, Sep 28
66 °FPartly sunny.12 mph73%30.36 "HgN/A
12:00 PM64 °FOvercast.12 mph78%30.36 "HgN/A
11:30 AM64 °FMostly cloudy.10 mph78%30.36 "HgN/A
11:00 AM64 °FOvercast.10 mph83%30.36 "HgN/A
10:30 AM64 °FMostly cloudy.8 mph83%30.36 "HgN/A
10:00 AM64 °FMostly cloudy.8 mph83%30.36 "HgN/A
9:30 AM63 °FPartly sunny.8 mph88%30.36 "HgN/A
9:00 AM63 °FPassing clouds.3 mph88%30.36 "HgN/A
8:30 AM61 °FPartly sunny.3 mph94%30.36 "HgN/A
8:00 AM61 °FOvercast.3 mph94%30.36 "HgN/A
7:30 AM61 °FPassing clouds.6 mph94%30.33 "HgN/A
7:00 AM59 °FPassing clouds.7 mph94%30.33 "HgN/A
6:30 AM61 °FOvercast.7 mph88%30.33 "HgN/A
6:00 AM63 °FOvercast.5 mph83%30.33 "HgN/A
5:30 AM63 °FMostly cloudy.5 mph83%30.33 "HgN/A
5:00 AM61 °FMostly cloudy.3 mph88%30.33 "HgN/A
4:30 AM61 °FOvercast.5 mph88%30.33 "HgN/A
4:00 AM61 °FPassing clouds.3 mph83%30.36 "HgN/A
3:30 AM63 °FOvercast.6 mph83%30.33 "HgN/A
3:00 AM63 °FOvercast.6 mph83%30.33 "HgN/A
2:30 AM63 °FOvercast.6 mph83%30.33 "HgN/A
2:00 AM63 °FMostly cloudy.6 mph77%30.33 "HgN/A
1:30 AM63 °FMostly cloudy.6 mph83%30.33 "HgN/A
1:00 AM59 °FOvercast.1 mph82%30.33 "HgN/A
12:30 AM59 °FOvercast.1 mph77%30.33 "HgN/A
12:00 AM59 °FClear.No wind72%30.33 "Hg10 mi
11:30 PM
Tue, Sep 27
59 °FClear.3 mph77%30.33 "Hg10 mi
11:00 PM59 °FClear.2 mph72%30.33 "Hg10 mi
10:30 PM59 °FPassing clouds.No wind68%30.33 "HgN/A
10:00 PM61 °FClear.3 mph68%30.33 "Hg10 mi
9:30 PM61 °FClear.2 mph63%30.30 "Hg10 mi
9:00 PM63 °FClear.3 mph59%30.30 "Hg10 mi
8:30 PM63 °FClear.5 mph59%30.30 "Hg10 mi
8:00 PM64 °FClear.5 mph56%30.30 "Hg10 mi
7:30 PM68 °FSunny.5 mph49%30.30 "Hg10 mi
7:00 PM70 °FScattered clouds.3 mph50%30.30 "HgN/A
6:30 PM72 °FSunny.6 mph44%30.27 "Hg10 mi
6:00 PM72 °FSunny.8 mph44%30.27 "Hg10 mi
5:30 PM73 °FPassing clouds.9 mph41%30.27 "HgN/A
5:00 PM73 °FPassing clouds.13 mph38%30.27 "HgN/A
4:30 PM73 °FPassing clouds.12 mph38%30.27 "HgN/A
4:00 PM75 °FPassing clouds.12 mph36%30.27 "HgN/A
3:30 PM73 °FPassing clouds.13 mph41%30.27 "HgN/A
3:00 PM73 °FPassing clouds.12 mph41%30.27 "HgN/A
2:30 PM73 °FSunny.14 mph41%30.27 "Hg10 mi
2:00 PM72 °FPassing clouds.12 mph44%30.30 "HgN/A
1:30 PM72 °FSunny.12 mph44%30.30 "Hg10 mi
1:00 PM70 °FPassing clouds.12 mph50%30.30 "HgN/A
Weather by CustomWeather, © 2016

See weather overviewHow to use our weather pages